Time,TemperatureF,DewpointF,PressureIn,WindDirection,WindDirectionDegrees,WindSpeedMPH,WindSpeedGustMPH,Humidity,HourlyPrecipIn,Conditions,Clouds,dailyrainin,SoftwareType,DateUTC
2013-02-15 08:51:00,24.4,10.6,30.39,ESE,112,0.9,0.9,55,0.00,,---,0.00,VWS V14.01,2013-02-15 14:51:00,
2013-02-15 08:52:00,24.4,10.6,30.39,West,270,2.2,2.2,55,0.00,,---,0.00,VWS V14.01,2013-02-15 14:52:00,
2013-02-15 08:57:00,24.8,10.9,30.39,ESE,112,1.6,4.3,55,0.00,,---,0.00,VWS V14.01,2013-02-15 14:57:00,
2013-02-15 09:01:00,25.2,10.9,30.39,South,180,2.0,2.9,54,0.00,,---,0.00,VWS V14.01,2013-02-15 15:01:00,
2013-02-15 09:06:00,25.3,11.0,30.39,North,0,1.6,3.6,54,0.00,,---,0.00,VWS V14.01,2013-02-15 15:06:00,
2013-02-15 09:11:00,25.9,11.1,30.39,East,90,1.6,4.7,53,0.00,,---,0.00,VWS V14.01,2013-02-15 15:11:00,
2013-02-15 09:16:00,26.4,11.6,30.39,West,270,2.2,2.2,53,0.00,,---,0.00,VWS V14.01,2013-02-15 15:16:00,
2013-02-15 09:21:00,27.0,12.1,30.39,West,270,0.0,0.0,53,0.00,,---,0.00,VWS V14.01,2013-02-15 15:21:00,
2013-02-15 09:26:00,27.7,12.8,30.39,WNW,292,3.6,3.6,53,0.00,,---,0.00,VWS V14.01,2013-02-15 15:26:00,
2013-02-15 09:31:00,27.9,12.5,30.41,SW,225,0.0,2.5,52,0.00,,---,0.00,VWS V14.01,2013-02-15 15:31:00,
2013-02-15 09:36:00,28.6,12.8,30.41,South,180,1.1,2.9,51,0.00,,---,0.00,VWS V14.01,2013-02-15 15:36:00,
2013-02-15 09:41:00,29.1,13.3,30.41,ENE,68,0.0,2.9,51,0.00,,---,0.00,VWS V14.01,2013-02-15 15:41:00,
2013-02-15 09:46:00,29.7,13.8,30.41,WNW,292,1.6,1.6,51,0.00,,---,0.00,VWS V14.01,2013-02-15 15:46:00,
2013-02-15 09:51:00,30.2,14.3,30.41,NE,45,0.0,0.0,51,0.00,,---,0.00,VWS V14.01,2013-02-15 15:51:00,
2013-02-15 09:56:00,30.2,13.4,30.41,West,270,0.0,4.0,49,0.00,,---,0.00,VWS V14.01,2013-02-15 15:56:00,
2013-02-15 10:01:00,31.1,13.7,30.41,NNW,338,1.1,3.4,48,0.00,,---,0.00,VWS V14.01,2013-02-15 16:01:00,
2013-02-15 10:06:00,32.2,15.2,30.41,ESE,112,3.6,3.6,49,0.00,,---,0.00,VWS V14.01,2013-02-15 16:06:00,
2013-02-15 10:11:00,32.5,15.0,30.41,West,270,0.0,0.0,48,0.00,,---,0.00,VWS V14.01,2013-02-15 16:11:00,
2013-02-15 10:16:00,32.7,13.7,30.41,ESE,112,2.2,2.7,45,0.00,,---,0.00,VWS V14.01,2013-02-15 16:16:00,
2013-02-15 10:21:00,32.9,13.4,30.41,NW,315,2.0,2.0,44,0.00,,---,0.00,VWS V14.01,2013-02-15 16:21:00,
2013-02-15 10:26:00,33.3,13.7,30.41,NE,45,2.0,2.0,44,0.00,,---,0.00,VWS V14.01,2013-02-15 16:26:00,
2013-02-15 10:31:00,34.2,14.5,30.41,NNE,22,2.7,2.7,44,0.00,,---,0.00,VWS V14.01,2013-02-15 16:31:00,
2013-02-15 10:36:00,34.3,13.6,30.41,South,180,3.1,3.1,42,0.00,,---,0.00,VWS V14.01,2013-02-15 16:36:00,
2013-02-15 10:41:00,34.9,14.1,30.41,NNW,338,3.4,3.4,42,0.00,,---,0.00,VWS V14.01,2013-02-15 16:41:00,
2013-02-15 10:46:00,35.6,14.8,30.39,NNW,338,2.7,3.6,42,0.00,,---,0.00,VWS V14.01,2013-02-15 16:46:00,
2013-02-15 10:51:00,36.0,14.6,30.39,NW,315,1.3,1.6,41,0.00,,---,0.00,VWS V14.01,2013-02-15 16:51:00,
2013-02-15 10:56:00,36.1,14.7,30.39,NNW,338,3.4,3.4,41,0.00,,---,0.00,VWS V14.01,2013-02-15 16:56:00,
2013-02-15 11:01:00,36.7,15.2,30.39,East,90,1.1,1.3,41,0.00,,---,0.00,VWS V14.01,2013-02-15 17:01:00,
2013-02-15 11:06:00,37.0,15.5,30.39,West,270,2.2,2.2,41,0.00,,---,0.00,VWS V14.01,2013-02-15 17:06:00,
2013-02-15 11:11:00,37.2,15.7,30.39,NW,315,2.0,2.5,41,0.00,,---,0.00,VWS V14.01,2013-02-15 17:11:00,
2013-02-15 11:16:00,37.4,14.7,30.39,NE,45,3.4,3.4,39,0.00,,---,0.00,VWS V14.01,2013-02-15 17:16:00,
2013-02-15 11:21:00,37.6,14.9,30.39,WNW,292,0.9,2.2,39,0.00,,---,0.00,VWS V14.01,2013-02-15 17:21:00,
2013-02-15 11:26:00,37.8,14.4,30.39,West,270,1.1,3.6,38,0.00,,---,0.00,VWS V14.01,2013-02-15 17:26:00,
2013-02-15 11:31:00,38.3,15.5,30.39,South,180,0.9,2.0,39,0.00,,---,0.00,VWS V14.01,2013-02-15 17:31:00,
2013-02-15 11:36:00,38.5,14.5,30.39,North,0,3.8,4.0,37,0.00,,---,0.00,VWS V14.01,2013-02-15 17:36:00,
2013-02-15 11:41:00,38.8,16.0,30.39,NNE,22,2.2,2.7,39,0.00,,---,0.00,VWS V14.01,2013-02-15 17:41:00,
2013-02-15 11:46:00,39.2,14.5,30.39,West,270,3.6,4.7,36,0.00,,---,0.00,VWS V14.01,2013-02-15 17:46:00,
2013-02-15 11:51:00,39.0,15.0,30.39,North,0,2.0,2.0,37,0.00,,---,0.00,VWS V14.01,2013-02-15 17:51:00,
2013-02-15 11:56:00,39.7,15.6,30.39,WSW,248,0.0,2.9,37,0.00,,---,0.00,VWS V14.01,2013-02-15 17:56:00,
2013-02-15 12:01:00,40.5,15.0,30.39,WNW,292,1.3,2.9,35,0.00,,---,0.00,VWS V14.01,2013-02-15 18:01:00,
2013-02-15 12:06:00,40.3,15.5,30.39,South,180,0.9,3.1,36,0.00,,---,0.00,VWS V14.01,2013-02-15 18:06:00,
2013-02-15 12:11:00,40.5,15.0,30.39,East,90,1.1,2.7,35,0.00,,---,0.00,VWS V14.01,2013-02-15 18:11:00,
2013-02-15 12:16:00,40.6,15.8,30.36,SW,225,3.8,3.8,36,0.00,,---,0.00,VWS V14.01,2013-02-15 18:16:00,
2013-02-15 12:21:00,41.2,16.9,30.36,SSW,202,1.1,1.6,37,0.00,,---,0.00,VWS V14.01,2013-02-15 18:21:00,
2013-02-15 12:26:00,41.4,16.4,30.36,SW,225,2.7,4.3,36,0.00,,---,0.00,VWS V14.01,2013-02-15 18:26:00,
2013-02-15 12:31:00,42.1,18.3,30.36,WNW,292,3.4,3.4,38,0.00,,---,0.00,VWS V14.01,2013-02-15 18:31:00,
2013-02-15 12:36:00,42.3,17.9,30.36,South,180,1.1,3.8,37,0.00,,---,0.00,VWS V14.01,2013-02-15 18:36:00,
2013-02-15 12:41:00,42.1,18.3,30.36,NW,315,3.1,3.1,38,0.00,,---,0.00,VWS V14.01,2013-02-15 18:41:00,
2013-02-15 12:46:00,42.8,19.0,30.36,WNW,292,0.0,1.6,38,0.00,,---,0.00,VWS V14.01,2013-02-15 18:46:00,
2013-02-15 12:51:00,42.4,17.4,30.36,West,270,3.1,4.0,36,0.00,,---,0.00,VWS V14.01,2013-02-15 18:51:00,
2013-02-15 12:56:00,42.6,18.2,30.36,ESE,112,2.5,3.8,37,0.00,,---,0.00,VWS V14.01,2013-02-15 18:56:00,
2013-02-15 13:01:00,42.6,18.2,30.36,NNW,338,2.0,4.0,37,0.00,,---,0.00,VWS V14.01,2013-02-15 19:01:00,
2013-02-15 13:06:00,42.8,18.4,30.36,ESE,112,0.0,3.6,37,0.00,,---,0.00,VWS V14.01,2013-02-15 19:06:00,
2013-02-15 13:11:00,42.4,17.4,30.36,NW,315,2.5,3.8,36,0.00,,---,0.00,VWS V14.01,2013-02-15 19:11:00,
2013-02-15 13:16:00,42.8,17.7,30.33,West,270,0.9,3.1,36,0.00,,---,0.00,VWS V14.01,2013-02-15 19:16:00,
2013-02-15 13:21:00,43.2,18.0,30.33,North,0,0.9,2.0,36,0.00,,---,0.00,VWS V14.01,2013-02-15 19:21:00,
2013-02-15 13:26:00,43.5,18.4,30.33,South,180,2.5,2.5,36,0.00,,---,0.00,VWS V14.01,2013-02-15 19:26:00,
2013-02-15 13:31:00,44.2,19.0,30.33,North,0,0.9,2.0,36,0.00,,---,0.00,VWS V14.01,2013-02-15 19:31:00,
2013-02-15 13:36:00,43.7,17.9,30.33,NNE,22,1.1,2.2,35,0.00,,---,0.00,VWS V14.01,2013-02-15 19:36:00,
2013-02-15 13:41:00,43.3,16.9,30.33,North,0,4.3,4.3,34,0.00,,---,0.00,VWS V14.01,2013-02-15 19:41:00,
2013-02-15 13:46:00,43.5,17.0,30.33,West,270,2.9,3.8,34,0.00,,---,0.00,VWS V14.01,2013-02-15 19:46:00,
2013-02-15 13:51:00,43.5,17.0,30.33,NNE,22,1.3,2.9,34,0.00,,---,0.00,VWS V14.01,2013-02-15 19:51:00,
2013-02-15 13:56:00,43.5,17.0,30.33,SSE,158,4.3,6.5,34,0.00,,---,0.00,VWS V14.01,2013-02-15 19:56:00,
2013-02-15 14:01:00,43.9,17.4,30.33,WNW,292,1.6,4.5,34,0.00,,---,0.00,VWS V14.01,2013-02-15 20:01:00,
2013-02-15 14:06:00,44.1,16.8,30.33,North,0,1.3,2.5,33,0.00,,---,0.00,VWS V14.01,2013-02-15 20:06:00,
2013-02-15 14:11:00,43.7,17.2,30.33,SW,225,1.1,3.6,34,0.00,,---,0.00,VWS V14.01,2013-02-15 20:11:00,
2013-02-15 14:16:00,42.3,15.2,30.33,NNW,338,2.2,2.2,33,0.00,,---,0.00,VWS V14.01,2013-02-15 20:16:00,
2013-02-15 14:21:00,42.4,16.1,30.33,NW,315,3.1,3.1,34,0.00,,---,0.00,VWS V14.01,2013-02-15 20:21:00,
2013-02-15 14:26:00,41.7,15.4,30.33,West,270,2.7,2.7,34,0.00,,---,0.00,VWS V14.01,2013-02-15 20:26:00,
2013-02-15 14:31:00,41.0,14.8,30.33,North,0,1.3,2.5,34,0.00,,---,0.00,VWS V14.01,2013-02-15 20:31:00,
2013-02-15 14:36:00,40.6,14.5,30.33,West,270,1.3,1.3,34,0.00,,---,0.00,VWS V14.01,2013-02-15 20:36:00,
2013-02-15 14:41:00,40.8,14.6,30.33,ESE,112,1.6,3.4,34,0.00,,---,0.00,VWS V14.01,2013-02-15 20:41:00,
2013-02-15 14:46:00,40.6,15.1,30.33,NE,45,1.3,3.8,35,0.00,,---,0.00,VWS V14.01,2013-02-15 20:46:00,
2013-02-15 14:51:00,40.5,15.0,30.33,SSW,202,0.0,0.0,35,0.00,,---,0.00,VWS V14.01,2013-02-15 20:51:00,
2013-02-15 14:56:00,40.6,15.1,30.33,WNW,292,0.0,0.9,35,0.00,,---,0.00,VWS V14.01,2013-02-15 20:56:00,
2013-02-15 15:01:00,41.0,15.5,30.33,ESE,112,2.0,3.1,35,0.00,,---,0.00,VWS V14.01,2013-02-15 21:01:00,
2013-02-15 15:06:00,40.6,14.5,30.33,NW,315,2.7,4.0,34,0.00,,---,0.00,VWS V14.01,2013-02-15 21:06:00,
2013-02-15 15:11:00,40.5,14.3,30.33,WNW,292,0.0,3.8,34,0.00,,---,0.00,VWS V14.01,2013-02-15 21:11:00,
2013-02-15 15:16:00,40.3,14.2,30.33,WNW,292,0.0,1.6,34,0.00,,---,0.00,VWS V14.01,2013-02-15 21:16:00,
2013-02-15 15:27:00,40.3,14.2,30.33,WSW,248,1.6,1.6,34,0.00,,---,0.00,VWS V14.01,2013-02-15 21:27:00,
2013-02-15 15:32:00,40.1,14.7,30.30,West,270,3.4,4.3,35,0.00,,---,0.00,VWS V14.01,2013-02-15 21:32:00,
2013-02-15 15:37:00,39.9,14.5,30.30,NW,315,2.5,2.5,35,0.00,,---,0.00,VWS V14.01,2013-02-15 21:37:00,
2013-02-15 15:42:00,39.7,14.3,30.30,NW,315,0.9,2.2,35,0.00,,---,0.00,VWS V14.01,2013-02-15 21:42:00,
2013-02-15 22:02:00,29.5,21.2,30.30,ENE,68,0.0,0.0,71,0.00,,---,0.00,VWS V14.01,2013-02-16 04:02:00,
2013-02-15 22:07:00,29.5,21.2,30.30,ENE,68,0.0,0.0,71,0.04,,---,0.04,VWS V14.01,2013-02-16 04:07:00,
2013-02-15 22:12:00,29.3,21.4,30.30,ENE,68,0.0,0.9,72,0.04,,---,0.04,VWS V14.01,2013-02-16 04:12:00,
2013-02-15 22:17:00,29.3,22.1,30.30,ENE,68,0.0,0.0,74,0.04,,---,0.04,VWS V14.01,2013-02-16 04:17:00,
2013-02-15 22:22:00,29.3,22.1,30.30,ENE,68,0.0,0.0,74,0.04,,---,0.04,VWS V14.01,2013-02-16 04:22:00,
2013-02-15 22:27:00,29.1,21.9,30.30,ENE,68,0.0,0.0,74,0.04,,---,0.04,VWS V14.01,2013-02-16 04:27:00,
2013-02-15 22:32:00,29.1,22.2,30.30,ENE,68,0.0,0.0,75,0.04,,---,0.04,VWS V14.01,2013-02-16 04:32:00,
2013-02-15 22:37:00,29.1,22.2,30.30,ENE,68,1.1,1.1,75,0.04,,---,0.04,VWS V14.01,2013-02-16 04:37:00,
2013-02-15 22:42:00,29.1,22.2,30.30,ENE,68,0.0,0.0,75,0.04,,---,0.04,VWS V14.01,2013-02-16 04:42:00,
2013-02-15 22:47:00,28.9,22.3,30.30,ENE,68,0.0,0.0,76,0.04,,---,0.04,VWS V14.01,2013-02-16 04:47:00,
2013-02-15 22:52:00,28.9,22.6,30.30,ENE,68,0.0,0.0,77,0.04,,---,0.04,VWS V14.01,2013-02-16 04:52:00,
2013-02-15 22:57:00,28.6,22.6,30.30,WNW,292,2.7,2.7,78,0.04,,---,0.04,VWS V14.01,2013-02-16 04:57:00,
2013-02-15 23:00:00,28.6,22.6,30.33,South,180,0.0,0.0,78,0.04,,---,0.04,VWS V14.01,2013-02-16 05:00:00,
2013-02-15 23:05:00,28.4,22.4,30.33,East,90,2.7,3.8,78,0.04,,---,0.04,VWS V14.01,2013-02-16 05:05:00,
2013-02-15 23:10:00,28.2,22.2,30.33,NE,45,0.0,0.0,78,0.00,,---,0.04,VWS V14.01,2013-02-16 05:10:00,
2013-02-15 23:15:00,28.2,22.2,30.30,East,90,2.0,2.0,78,0.00,,---,0.04,VWS V14.01,2013-02-16 05:15:00,
2013-02-15 23:20:00,28.0,22.1,30.30,SE,135,0.0,0.0,78,0.00,,---,0.04,VWS V14.01,2013-02-16 05:20:00,
2013-02-15 23:23:00,28.0,22.4,30.30,WNW,292,0.9,0.9,79,0.05,,---,0.09,VWS V14.01,2013-02-16 05:23:00,
2013-02-15 23:28:00,27.9,21.9,30.30,North,0,0.0,0.0,78,0.05,,---,0.09,VWS V14.01,2013-02-16 05:28:00,
2013-02-15 23:33:00,27.9,21.6,30.30,East,90,0.0,1.1,77,0.05,,---,0.09,VWS V14.01,2013-02-16 05:33:00,
2013-02-15 23:38:00,27.9,21.6,30.30,East,90,0.0,0.0,77,0.05,,---,0.09,VWS V14.01,2013-02-16 05:38:00,
2013-02-15 23:43:00,27.9,21.6,30.30,NW,315,0.0,0.0,77,0.05,,---,0.09,VWS V14.01,2013-02-16 05:43:00,
2013-02-15 23:48:00,27.9,21.9,30.33,North,0,0.9,0.9,78,0.05,,---,0.09,VWS V14.01,2013-02-16 05:48:00,
2013-02-15 23:53:00,27.7,21.7,30.33,NW,315,1.1,1.1,78,0.05,,---,0.09,VWS V14.01,2013-02-16 05:53:00,
2013-02-15 23:58:00,27.5,21.5,30.33,NE,45,0.0,0.0,78,0.05,,---,0.09,VWS V14.01,2013-02-16 05:58:00,